Location: Eckley Miners' Village
(40.9930°N, 75.8630°W)
Time: 23:59:05
(UTC-04:00)

Vanguard 1 Rocket - Pass Details

Date: 21 March 2026
Orbit: 654 x 4213 km, 34.3° (Epoch: 20 April)

Event Time Altitude Azimuth Distance (km) Brightness Sun altitude
Exits shadow 06:30:43 - 240° (WSW) 4,328 10.3 -7.3°
Reaches altitude 10° 06:32:59 10° 235° (SW) 3,500 9.9 -6.9°
Maximum altitude 06:40:07 37° 172° (S) 1,433 8.5 -5.5°
Drops below altitude 10° 06:44:44 10° 104° (ESE) 2,251 10.9 -4.7°
Sets 06:46:54 0° 95° (E) 3,047 12.5 -4.3°
